GALILEO-PFM 1 37846U 11060A 25037.18396591 -.00000095 00000-0 00000-0 0 9990 2 37846 57.1152 355.2027 0003797 342.1022 17.8730 1.70475603 82666 GALILEO-FM2 1 37847U 11060B 25035.66538803 -.00000088 00000-0 00000+0 0 9997 2 37847 57.1163 355.2441 0005422 325.3130 227.9711 1.70475735 82769 GALILEO-FM3 1 38857U 12055A 25039.56996335 -.00000034 00000-0 00000+0 0 9996 2 38857 55.5189 115.1063 0004580 268.7993 91.1867 1.70473367 76737 GALILEO-FM4 1 38858U 12055B 25040.11667814 -.00000033 00000-0 00000+0 0 9996 2 38858 55.5296 115.7451 0000632 261.8955 98.1371 1.64591888 76537 GALILEO 5 (261) 1 40128U 14050A 25039.16540020 -.00000043 00000-0 00000-0 0 9990 2 40128 49.4091 293.5508 1619341 160.3317 206.7471 1.85519691 69155 GALILEO 6 (262) 1 40129U 14050B 25036.18886189 -.00000049 00000-0 00000-0 0 9995 2 40129 49.4282 292.7514 1618752 161.0016 205.8457 1.85520311 71265 GALILEO 7 (263) 1 40544U 15017A 25034.61638115 -.00000084 00000-0 00000-0 0 9999 2 40544 56.9085 355.1745 0005626 283.8550 76.0744 1.70475483 60702 GALILEO 8 (264) 1 40545U 15017B 25037.21749240 -.00000096 00000-0 00000+0 0 9993 2 40545 56.9165 355.1203 0004964 276.2372 83.6950 1.70475308 61411 GALILEO 9 (205) 1 40889U 15045A 25037.57270511 .00000077 00000-0 00000-0 0 9993 2 40889 55.1184 235.2927 0006364 46.7135 313.3685 1.70473377 58562 GALILEO 10 (206) 1 40890U 15045B 25037.79332210 .00000077 00000-0 00000-0 0 9994 2 40890 55.1184 235.2819 0004263 48.2869 311.7788 1.70473372 58595 GALILEO 12 (269) 1 41174U 15079A 25038.54868329 -.00000034 00000-0 00000-0 0 9990 2 41174 55.5376 114.8457 0003681 312.5405 47.4647 1.70474849 56342 GALILEO 11 (268) 1 41175U 15079B 25038.18202304 -.00000034 00000-0 00000-0 0 9996 2 41175 55.5365 114.8533 0005178 294.8521 65.1301 1.70474470 56759 GALILEO 14 (26B) 1 41549U 16030A 25037.71907444 .00000077 00000-0 00000+0 0 9999 2 41549 55.2650 235.3205 0003887 25.1132 334.9350 1.70473411 54204 GALILEO 13 (26A) 1 41550U 16030B 25038.56347938 .00000075 00000-0 00000-0 0 9990 2 41550 55.2653 235.2955 0000879 156.2754 203.7582 1.70473688 54233 GALILEO 15 (267) 1 41859U 16069A 25039.42874606 -.00000034 00000-0 00000-0 0 9993 2 41859 55.2045 114.7653 0003697 295.9549 64.0452 1.70474637 50987 GALILEO 16 (26C) 1 41860U 16069B 25038.69618376 -.00000035 00000-0 00000-0 0 9994 2 41860 55.2021 114.7816 0002555 325.2755 34.7441 1.70474773 51223 GALILEO 17 (26D) 1 41861U 16069C 25037.89120100 -.00000033 00000-0 00000-0 0 9997 2 41861 55.2038 114.8111 0004298 276.6963 83.2907 1.70475071 51078 GALILEO 18 (26E) 1 41862U 16069D 25037.45011033 -.00000031 00000-0 00000+0 0 9991 2 41862 55.2023 114.8166 0003482 278.3589 81.6381 1.70474933 51197